Time,TemperatureF,DewpointF,PressureIn,WindDirection,WindDirectionDegrees,WindSpeedMPH,WindSpeedGustMPH,Humidity,HourlyPrecipIn,Conditions,Clouds,dailyrainin,SoftwareType,DateUTC
2013-03-30 00:00:00,66.9,61.9,30.11,East,91,1.0,1.0,84,0.00,,,0.00,Wunderground v.1.15,2013-03-30 05:00:00,
2013-03-30 00:05:00,66.8,61.8,30.10,SE,139,1.0,1.0,84,0.00,,,0.00,Wunderground v.1.15,2013-03-30 05:05:00,
2013-03-30 00:14:00,66.6,61.9,30.10,ESE,117,1.0,1.0,85,0.00,,,0.00,Wunderground v.1.15,2013-03-30 05:14:00,
2013-03-30 00:25:00,66.5,61.8,30.11,SSW,207,1.0,1.0,85,0.00,,,0.00,Wunderground v.1.15,2013-03-30 05:25:00,
2013-03-30 00:34:00,66.3,62.0,30.11,East,89,1.0,1.0,86,0.00,,,0.00,Wunderground v.1.15,2013-03-30 05:34:00,
2013-03-30 00:40:00,66.3,62.0,30.12,SE,134,1.0,1.0,86,0.00,,,0.00,Wunderground v.1.15,2013-03-30 05:40:00,
2013-03-30 00:49:00,66.3,62.0,30.12,SW,219,0.0,0.0,86,0.00,,,0.00,Wunderground v.1.15,2013-03-30 05:49:00,
2013-03-30 00:55:00,66.3,62.3,30.12,ENE,72,0.0,0.0,87,0.00,,,0.00,Wunderground v.1.15,2013-03-30 05:55:00,
2013-03-30 01:04:00,66.3,62.3,30.12,SE,137,0.0,1.0,87,0.00,,,0.00,Wunderground v.1.15,2013-03-30 06:04:00,
2013-03-30 01:15:00,66.3,62.3,30.12,ESE,104,0.0,0.0,87,0.00,,,0.00,Wunderground v.1.15,2013-03-30 06:15:00,
2013-03-30 01:24:00,66.3,62.3,30.12,ESE,107,0.0,0.0,87,0.00,,,0.00,Wunderground v.1.15,2013-03-30 06:24:00,
2013-03-30 01:30:00,66.3,62.3,30.11,NW,316,0.0,0.0,87,0.00,,,0.00,Wunderground v.1.15,2013-03-30 06:30:00,
2013-03-30 01:39:00,66.2,62.5,30.11,ESE,115,0.0,0.0,88,0.00,,,0.00,Wunderground v.1.15,2013-03-30 06:39:00,
2013-03-30 01:45:00,66.2,62.5,30.11,ESE,114,0.0,0.0,88,0.00,,,0.00,Wunderground v.1.15,2013-03-30 06:45:00,
2013-03-30 01:54:00,66.1,62.4,30.11,ESE,117,0.0,0.0,88,0.00,,,0.00,Wunderground v.1.15,2013-03-30 06:54:00,
2013-03-30 02:05:00,66.1,62.4,30.11,ESE,103,0.0,0.0,88,0.00,,,0.00,Wunderground v.1.15,2013-03-30 07:05:00,
2013-03-30 02:14:00,66.0,62.3,30.10,East,94,0.0,1.0,88,0.00,,,0.00,Wunderground v.1.15,2013-03-30 07:14:00,
2013-03-30 02:20:00,66.0,62.3,30.10,ESE,104,0.0,0.0,88,0.00,,,0.00,Wunderground v.1.15,2013-03-30 07:20:00,
2013-03-30 02:29:00,65.9,62.6,30.08,East,101,0.0,0.0,89,0.00,,,0.00,Wunderground v.1.15,2013-03-30 07:29:00,
2013-03-30 02:35:00,65.9,62.6,30.08,East,101,0.0,2.0,89,0.00,,,0.00,Wunderground v.1.15,2013-03-30 07:35:00,
2013-03-30 02:44:00,65.9,62.6,30.08,ESE,122,0.0,1.0,89,0.00,,,0.00,Wunderground v.1.15,2013-03-30 07:44:00,
2013-03-30 02:55:00,65.8,62.5,30.08,ESE,123,0.0,2.0,89,0.00,,,0.00,Wunderground v.1.15,2013-03-30 07:55:00,
2013-03-30 03:04:00,65.8,62.5,30.08,SSE,150,0.0,1.0,89,0.00,,,0.00,Wunderground v.1.15,2013-03-30 08:04:00,
2013-03-30 03:10:00,65.8,62.8,30.08,SSE,150,0.0,0.0,90,0.00,,,0.00,Wunderground v.1.15,2013-03-30 08:10:00,
2013-03-30 03:19:00,65.8,62.8,30.08,SE,128,0.0,0.0,90,0.00,,,0.00,Wunderground v.1.15,2013-03-30 08:19:00,
2013-03-30 03:25:00,65.8,62.8,30.08,NE,53,0.0,1.0,90,0.00,,,0.00,Wunderground v.1.15,2013-03-30 08:25:00,
2013-03-30 03:34:00,65.8,62.8,30.07,SE,136,0.0,1.0,90,0.00,,,0.00,Wunderground v.1.15,2013-03-30 08:34:00,
2013-03-30 03:45:00,65.8,62.8,30.07,SE,131,0.0,0.0,90,0.00,,,0.00,Wunderground v.1.15,2013-03-30 08:45:00,
2013-03-30 03:54:00,65.7,62.7,30.06,South,183,0.0,1.0,90,0.00,,,0.00,Wunderground v.1.15,2013-03-30 08:54:00,
2013-03-30 04:04:00,65.7,62.7,30.05,SE,134,1.0,1.0,90,0.00,,,0.00,Wunderground v.1.15,2013-03-30 09:04:00,
2013-03-30 04:09:00,65.6,62.6,30.05,South,178,1.0,1.0,90,0.00,,,0.00,Wunderground v.1.15,2013-03-30 09:09:00,
2013-03-30 04:20:00,65.6,62.3,30.05,SW,221,1.0,1.0,89,0.00,,,0.00,Wunderground v.1.15,2013-03-30 09:20:00,
2013-03-30 04:29:00,65.7,62.4,30.06,South,184,2.0,2.0,89,0.00,,,0.00,Wunderground v.1.15,2013-03-30 09:29:00,
2013-03-30 04:40:00,65.7,62.4,30.06,SW,217,1.0,1.0,89,0.00,,,0.00,Wunderground v.1.15,2013-03-30 09:40:00,
2013-03-30 04:49:00,65.6,62.3,30.06,North,349,1.0,1.0,89,0.00,,,0.00,Wunderground v.1.15,2013-03-30 09:49:00,
2013-03-30 05:00:00,65.6,62.3,30.05,WNW,297,1.0,2.0,89,0.00,,,0.00,Wunderground v.1.15,2013-03-30 10:00:00,
2013-03-30 05:09:00,65.5,62.5,30.05,ESE,122,1.0,1.0,90,0.00,,,0.00,Wunderground v.1.15,2013-03-30 10:09:00,
2013-03-30 05:15:00,65.5,62.5,30.05,West,270,1.0,3.0,90,0.00,,,0.00,Wunderground v.1.15,2013-03-30 10:15:00,
2013-03-30 05:24:00,65.5,62.5,30.06,NW,314,1.0,4.0,90,0.00,,,0.00,Wunderground v.1.15,2013-03-30 10:24:00,
2013-03-30 05:30:00,65.4,62.4,30.08,NW,304,1.0,1.0,90,0.00,,,0.00,Wunderground v.1.15,2013-03-30 10:30:00,
2013-03-30 05:39:00,65.5,62.5,30.09,NNW,332,1.0,1.0,90,0.00,,,0.00,Wunderground v.1.15,2013-03-30 10:39:00,
2013-03-30 05:50:00,65.4,62.4,30.08,SSW,207,0.0,0.0,90,0.00,,,0.00,Wunderground v.1.15,2013-03-30 10:50:00,
2013-03-30 05:59:00,65.4,62.4,30.09,NW,305,0.0,0.0,90,0.00,,,0.00,Wunderground v.1.15,2013-03-30 10:59:00,
2013-03-30 06:05:00,65.4,62.4,30.08,South,170,0.0,0.0,90,0.00,,,0.00,Wunderground v.1.15,2013-03-30 11:05:00,
2013-03-30 06:14:00,65.4,62.4,30.09,NE,37,0.0,0.0,90,0.00,,,0.00,Wunderground v.1.15,2013-03-30 11:14:00,
2013-03-30 06:25:00,65.4,62.4,30.08,ESE,105,0.0,1.0,90,0.00,,,0.00,Wunderground v.1.15,2013-03-30 11:25:00,
2013-03-30 06:34:00,65.4,62.4,30.08,ESE,105,0.0,0.0,90,0.00,,,0.00,Wunderground v.1.15,2013-03-30 11:34:00,
2013-03-30 06:40:00,65.3,62.3,30.08,SE,127,0.0,0.0,90,0.00,,,0.00,Wunderground v.1.15,2013-03-30 11:40:00,
2013-03-30 06:49:00,65.3,62.6,30.08,ESE,120,0.0,2.0,91,0.00,,,0.00,Wunderground v.1.15,2013-03-30 11:49:00,
2013-03-30 07:00:00,65.2,62.5,30.08,ESE,118,0.0,0.0,91,0.00,,,0.00,Wunderground v.1.15,2013-03-30 12:00:00,
2013-03-30 07:09:00,65.1,62.4,30.08,SW,215,0.0,1.0,91,0.00,,,0.00,Wunderground v.1.15,2013-03-30 12:09:00,
2013-03-30 07:20:00,65.1,62.4,30.08,ESE,115,0.0,1.0,91,0.00,,,0.00,Wunderground v.1.15,2013-03-30 12:20:00,
2013-03-30 07:30:00,65.0,62.3,30.08,ESE,113,0.0,1.0,91,0.00,,,0.00,Wunderground v.1.15,2013-03-30 12:30:00,
2013-03-30 07:39:00,65.0,62.3,30.08,North,8,0.0,0.0,91,0.00,,,0.00,Wunderground v.1.15,2013-03-30 12:39:00,
2013-03-30 07:50:00,65.0,62.6,30.08,South,177,0.0,0.0,92,0.00,,,0.00,Wunderground v.1.15,2013-03-30 12:50:00,
2013-03-30 07:59:00,65.0,62.6,30.08,West,280,1.0,1.0,92,0.00,,,0.00,Wunderground v.1.15,2013-03-30 12:59:00,
2013-03-30 08:05:00,65.0,62.6,30.08,South,183,1.0,1.0,92,0.00,,,0.00,Wunderground v.1.15,2013-03-30 13:05:00,
2013-03-30 08:14:00,65.0,62.6,30.07,SSW,198,0.0,1.0,92,0.00,,,0.00,Wunderground v.1.15,2013-03-30 13:14:00,
2013-03-30 08:20:00,65.1,62.7,30.08,SSE,167,0.0,1.0,92,0.00,,,0.00,Wunderground v.1.15,2013-03-30 13:20:00,
2013-03-30 08:29:00,65.2,62.8,30.08,WSW,239,0.0,1.0,92,0.00,,,0.00,Wunderground v.1.15,2013-03-30 13:29:00,
2013-03-30 08:40:00,65.3,62.9,30.08,SW,214,1.0,1.0,92,0.00,,,0.00,Wunderground v.1.15,2013-03-30 13:40:00,
2013-03-30 08:49:00,65.6,63.2,30.08,South,180,1.0,1.0,92,0.00,,,0.00,Wunderground v.1.15,2013-03-30 13:49:00,
2013-03-30 09:00:00,65.8,63.1,30.08,SSW,204,1.0,1.0,91,0.00,,,0.00,Wunderground v.1.15,2013-03-30 14:00:00,
2013-03-30 09:09:00,65.9,63.2,30.08,SSW,193,1.0,2.0,91,0.00,,,0.00,Wunderground v.1.15,2013-03-30 14:09:00,
2013-03-30 09:15:00,65.9,63.2,30.08,South,174,2.0,2.0,91,0.00,,,0.00,Wunderground v.1.15,2013-03-30 14:15:00,
2013-03-30 09:24:00,66.0,63.3,30.08,South,189,1.0,2.0,91,0.00,,,0.00,Wunderground v.1.15,2013-03-30 14:24:00,
2013-03-30 09:34:00,66.2,63.5,30.09,SSW,197,1.0,1.0,91,0.00,,,0.00,Wunderground v.1.15,2013-03-30 14:34:00,
2013-03-30 09:40:00,66.3,63.6,30.09,NW,321,1.0,1.0,91,0.00,,,0.00,Wunderground v.1.15,2013-03-30 14:40:00,
2013-03-30 09:49:00,66.5,63.8,30.08,South,179,1.0,2.0,91,0.00,,,0.00,Wunderground v.1.15,2013-03-30 14:49:00,
2013-03-30 09:55:00,66.6,63.9,30.08,SW,224,1.0,2.0,91,0.00,,,0.00,Wunderground v.1.15,2013-03-30 14:55:00,
2013-03-30 10:04:00,67.0,64.0,30.08,SW,217,1.0,1.0,90,0.00,,,0.00,Wunderground v.1.15,2013-03-30 15:04:00,
2013-03-30 10:10:00,67.1,64.1,30.08,West,280,1.0,1.0,90,0.00,,,0.00,Wunderground v.1.15,2013-03-30 15:10:00,
2013-03-30 10:19:00,67.7,64.3,30.08,SW,219,1.0,3.0,89,0.00,,,0.00,Wunderground v.1.15,2013-03-30 15:19:00,
2013-03-30 10:30:00,68.1,64.4,30.07,SW,215,1.0,1.0,88,0.00,,,0.00,Wunderground v.1.15,2013-03-30 15:30:00,
2013-03-30 10:39:00,68.6,64.9,30.07,WSW,240,2.0,2.0,88,0.00,,,0.00,Wunderground v.1.15,2013-03-30 15:39:00,
2013-03-30 10:50:00,69.2,64.8,30.08,West,264,2.0,2.0,86,0.00,,,0.00,Wunderground v.1.15,2013-03-30 15:50:00,
2013-03-30 10:59:00,69.6,64.9,30.07,SW,235,1.0,2.0,85,0.00,,,0.00,Wunderground v.1.15,2013-03-30 15:59:00,
2013-03-30 11:05:00,69.7,64.6,30.08,WNW,287,1.0,2.0,84,0.00,,,0.00,Wunderground v.1.15,2013-03-30 16:05:00,
2013-03-30 11:14:00,69.9,64.8,30.07,West,267,1.0,2.0,84,0.00,,,0.00,Wunderground v.1.15,2013-03-30 16:14:00,
2013-03-30 11:25:00,70.4,65.0,30.07,SSW,197,2.0,2.0,83,0.00,,,0.00,Wunderground v.1.15,2013-03-30 16:25:00,
2013-03-30 11:34:00,70.6,64.8,30.08,WSW,258,2.0,5.0,82,0.00,,,0.00,Wunderground v.1.15,2013-03-30 16:34:00,
2013-03-30 11:40:00,70.7,64.9,30.07,SW,218,2.0,3.0,82,0.00,,,0.00,Wunderground v.1.15,2013-03-30 16:40:00,
2013-03-30 11:49:00,71.2,64.7,30.07,WNW,300,2.0,5.0,80,0.00,,,0.00,Wunderground v.1.15,2013-03-30 16:49:00,
2013-03-30 11:55:00,71.4,64.9,30.06,West,277,2.0,5.0,80,0.00,,,0.00,Wunderground v.1.15,2013-03-30 16:55:00,
2013-03-30 12:04:00,72.2,65.0,30.07,SW,221,2.0,2.0,78,0.00,,,0.00,Wunderground v.1.15,2013-03-30 17:04:00,
2013-03-30 12:15:00,72.6,65.3,30.06,WSW,255,1.0,2.0,78,0.00,,,0.00,Wunderground v.1.15,2013-03-30 17:15:00,
2013-03-30 12:24:00,73.1,65.8,30.06,East,82,1.0,2.0,78,0.00,,,0.00,Wunderground v.1.15,2013-03-30 17:24:00,
2013-03-30 12:34:00,74.0,65.6,30.06,West,277,1.0,2.0,75,0.00,,,0.00,Wunderground v.1.15,2013-03-30 17:34:00,
2013-03-30 12:45:00,75.0,66.5,30.05,ESE,111,2.0,2.0,75,0.00,,,0.00,Wunderground v.1.15,2013-03-30 17:45:00,
2013-03-30 12:54:00,76.6,66.5,30.04,SW,218,2.0,2.0,71,0.00,,,0.00,Wunderground v.1.15,2013-03-30 17:54:00,
2013-03-30 13:05:00,77.8,66.8,30.04,South,186,2.0,2.0,69,0.00,,,0.00,Wunderground v.1.15,2013-03-30 18:05:00,
2013-03-30 13:14:00,79.0,66.7,30.04,NE,41,3.0,3.0,66,0.00,,,0.00,Wunderground v.1.15,2013-03-30 18:14:00,
2013-03-30 13:24:00,79.1,65.9,30.03,WNW,294,2.0,3.0,64,0.00,,,0.00,Wunderground v.1.15,2013-03-30 18:24:00,
2013-03-30 13:34:00,78.2,65.9,30.03,SSW,201,2.0,3.0,66,0.00,,,0.00,Wunderground v.1.15,2013-03-30 18:34:00,
2013-03-30 13:40:00,78.9,65.7,30.03,WSW,257,2.0,4.0,64,0.00,,,0.00,Wunderground v.1.15,2013-03-30 18:40:00,
2013-03-30 13:49:00,79.2,66.0,30.02,NNE,12,2.0,3.0,64,0.00,,,0.00,Wunderground v.1.15,2013-03-30 18:49:00,
2013-03-30 13:55:00,80.2,66.0,30.02,ESE,113,2.0,3.0,62,0.00,,,0.00,Wunderground v.1.15,2013-03-30 18:55:00,
2013-03-30 14:04:00,80.5,65.8,30.01,SSW,197,2.0,4.0,61,0.00,,,0.00,Wunderground v.1.15,2013-03-30 19:04:00,
2013-03-30 14:15:00,80.5,65.3,30.00,SW,231,2.0,2.0,60,0.00,,,0.00,Wunderground v.1.15,2013-03-30 19:15:00,
2013-03-30 14:24:00,81.4,65.7,29.99,East,98,2.0,2.0,59,0.00,,,0.00,Wunderground v.1.15,2013-03-30 19:24:00,
2013-03-30 14:35:00,82.2,66.0,29.99,SE,128,2.0,2.0,58,0.00,,,0.00,Wunderground v.1.15,2013-03-30 19:35:00,
2013-03-30 14:44:00,82.6,65.3,29.98,SSW,197,2.0,2.0,56,0.00,,,0.00,Wunderground v.1.15,2013-03-30 19:44:00,
2013-03-30 14:55:00,83.2,64.8,29.98,West,265,2.0,2.0,54,0.00,,,0.00,Wunderground v.1.15,2013-03-30 19:55:00,
2013-03-30 15:04:00,84.0,65.0,29.97,East,96,2.0,3.0,53,0.00,,,0.00,Wunderground v.1.15,2013-03-30 20:04:00,
2013-03-30 15:10:00,83.8,65.9,29.97,SSE,149,2.0,2.0,55,0.00,,,0.00,Wunderground v.1.15,2013-03-30 20:10:00,
2013-03-30 15:20:00,84.8,65.2,29.97,WSW,241,2.0,2.0,52,0.00,,,0.00,Wunderground v.1.15,2013-03-30 20:20:00,
2013-03-30 15:29:00,84.4,64.3,29.96,NNW,340,2.0,4.0,51,0.00,,,0.00,Wunderground v.1.15,2013-03-30 20:29:00,
2013-03-30 15:40:00,84.4,65.4,29.96,WNW,288,1.0,2.0,53,0.00,,,0.00,Wunderground v.1.15,2013-03-30 20:40:00,
2013-03-30 15:49:00,84.6,64.5,29.96,East,89,2.0,2.0,51,0.00,,,0.00,Wunderground v.1.15,2013-03-30 20:49:00,
2013-03-30 16:00:00,84.4,64.3,29.95,SW,229,2.0,2.0,51,0.00,,,0.00,Wunderground v.1.15,2013-03-30 21:00:00,
2013-03-30 16:09:00,85.2,64.5,29.95,SSW,206,1.0,2.0,50,0.00,,,0.00,Wunderground v.1.15,2013-03-30 21:09:00,
2013-03-30 16:15:00,84.9,64.2,29.94,West,266,2.0,2.0,50,0.00,,,0.00,Wunderground v.1.15,2013-03-30 21:15:00,
2013-03-30 16:24:00,84.5,64.4,29.94,SW,221,1.0,2.0,51,0.00,,,0.00,Wunderground v.1.15,2013-03-30 21:24:00,
2013-03-30 16:35:00,84.4,63.7,29.93,SW,217,1.0,3.0,50,0.00,,,0.00,Wunderground v.1.15,2013-03-30 21:35:00,
2013-03-30 16:44:00,84.0,63.9,29.93,ENE,70,1.0,1.0,51,0.00,,,0.00,Wunderground v.1.15,2013-03-30 21:44:00,
2013-03-30 16:50:00,84.3,63.6,29.93,SW,229,1.0,4.0,50,0.00,,,0.00,Wunderground v.1.15,2013-03-30 21:50:00,
2013-03-30 16:59:00,84.1,64.0,29.93,ESE,104,1.0,3.0,51,0.00,,,0.00,Wunderground v.1.15,2013-03-30 21:59:00,
2013-03-30 17:05:00,84.3,64.8,29.93,South,173,1.0,3.0,52,0.00,,,0.00,Wunderground v.1.15,2013-03-30 22:05:00,
2013-03-30 17:14:00,85.5,64.7,29.92,ESE,104,1.0,2.0,50,0.00,,,0.00,Wunderground v.1.15,2013-03-30 22:14:00,
2013-03-30 17:25:00,85.9,63.9,29.92,WSW,239,2.0,4.0,48,0.00,,,0.00,Wunderground v.1.15,2013-03-30 22:25:00,
2013-03-30 17:34:00,85.1,63.8,29.92,East,96,2.0,2.0,49,0.00,,,0.00,Wunderground v.1.15,2013-03-30 22:34:00,
2013-03-30 17:44:00,84.3,63.1,29.92,ESE,106,1.0,2.0,49,0.00,,,0.00,Wunderground v.1.15,2013-03-30 22:44:00,
2013-03-30 17:54:00,83.3,63.3,29.92,ESE,102,1.0,1.0,51,0.00,,,0.00,Wunderground v.1.15,2013-03-30 22:54:00,
2013-03-30 18:00:00,83.3,63.3,29.92,West,259,1.0,1.0,51,0.00,,,0.00,Wunderground v.1.15,2013-03-30 23:00:00,
2013-03-30 18:09:00,83.1,63.1,29.91,SW,224,1.0,1.0,51,0.00,,,0.00,Wunderground v.1.15,2013-03-30 23:09:00,
2013-03-30 18:15:00,83.2,62.6,29.91,SE,134,1.0,1.0,50,0.00,,,0.00,Wunderground v.1.15,2013-03-30 23:15:00,
2013-03-30 18:24:00,83.1,62.5,29.91,NW,315,1.0,2.0,50,0.00,,,0.00,Wunderground v.1.15,2013-03-30 23:24:00,
2013-03-30 18:35:00,83.1,63.1,29.91,SW,222,1.0,1.0,51,0.00,,,0.00,Wunderground v.1.15,2013-03-30 23:35:00,
2013-03-30 18:44:00,82.5,63.1,29.90,SW,236,1.0,1.0,52,0.00,,,0.00,Wunderground v.1.15,2013-03-30 23:44:00,
2013-03-30 18:50:00,82.3,62.4,29.90,SSW,212,1.0,1.0,51,0.00,,,0.00,Wunderground v.1.15,2013-03-30 23:50:00,
2013-03-30 18:59:00,82.1,62.7,29.90,East,98,1.0,1.0,52,0.00,,,0.00,Wunderground v.1.15,2013-03-30 23:59:00,
2013-03-30 19:10:00,81.8,63.5,29.90,SSW,210,1.0,1.0,54,0.00,,,0.00,Wunderground v.1.15,2013-03-31 00:10:00,
2013-03-30 19:19:00,81.2,63.0,29.90,SE,143,0.0,0.0,54,0.00,,,0.00,Wunderground v.1.15,2013-03-31 00:19:00,
2013-03-30 19:25:00,80.8,62.6,29.90,East,96,0.0,0.0,54,0.00,,,0.00,Wunderground v.1.15,2013-03-31 00:25:00,
2013-03-30 19:34:00,80.1,62.5,29.90,ENE,63,0.0,0.0,55,0.00,,,0.00,Wunderground v.1.15,2013-03-31 00:34:00,
2013-03-30 19:40:00,79.6,62.5,29.90,ENE,63,0.0,0.0,56,0.00,,,0.00,Wunderground v.1.15,2013-03-31 00:40:00,
2013-03-30 19:49:00,78.4,62.4,29.90,ENE,63,0.0,0.0,58,0.00,,,0.00,Wunderground v.1.15,2013-03-31 00:49:00,
2013-03-30 20:00:00,77.1,62.6,29.90,ENE,63,0.0,0.0,61,0.00,,,0.00,Wunderground v.1.15,2013-03-31 01:00:00,
2013-03-30 20:09:00,75.8,62.8,29.90,ENE,63,0.0,0.0,64,0.00,,,0.00,Wunderground v.1.15,2013-03-31 01:09:00,
2013-03-30 20:20:00,74.6,62.5,29.90,ENE,63,0.0,0.0,66,0.00,,,0.00,Wunderground v.1.15,2013-03-31 01:20:00,
2013-03-30 20:29:00,73.6,62.4,29.90,ENE,63,0.0,0.0,68,0.00,,,0.00,Wunderground v.1.15,2013-03-31 01:29:00,
2013-03-30 20:35:00,73.1,62.3,29.90,ENE,63,0.0,0.0,69,0.00,,,0.00,Wunderground v.1.15,2013-03-31 01:35:00,
2013-03-30 20:44:00,72.3,62.0,29.90,ENE,63,0.0,0.0,70,0.00,,,0.00,Wunderground v.1.15,2013-03-31 01:44:00,
2013-03-30 20:55:00,71.6,61.7,29.90,ENE,63,0.0,0.0,71,0.00,,,0.00,Wunderground v.1.15,2013-03-31 01:55:00,
2013-03-30 21:04:00,71.0,61.9,29.91,ENE,63,0.0,0.0,73,0.00,,,0.00,Wunderground v.1.15,2013-03-31 02:04:00,
2013-03-30 21:10:00,70.8,61.7,29.91,ENE,63,0.0,0.0,73,0.00,,,0.00,Wunderground v.1.15,2013-03-31 02:10:00,
2013-03-30 21:15:00,70.6,61.9,29.92,ENE,62,0.0,0.0,74,0.00,,,0.00,Wunderground v.1.15,2013-03-31 02:15:00,
2013-03-30 21:24:00,71.7,63.0,29.93,SE,131,1.0,1.0,74,0.00,,,0.00,Wunderground v.1.15,2013-03-31 02:24:00,
2013-03-30 21:35:00,73.6,64.4,29.93,SSE,167,1.0,1.0,73,0.00,,,0.00,Wunderground v.1.15,2013-03-31 02:35:00,
2013-03-30 21:44:00,74.1,65.3,29.93,SE,145,2.0,2.0,74,0.00,,,0.00,Wunderground v.1.15,2013-03-31 02:44:00,
2013-03-30 21:50:00,74.1,65.3,29.94,East,100,1.0,1.0,74,0.00,,,0.00,Wunderground v.1.15,2013-03-31 02:50:00,
2013-03-30 21:59:00,73.9,65.5,29.94,SE,128,1.0,3.0,75,0.00,,,0.00,Wunderground v.1.15,2013-03-31 02:59:00,
2013-03-30 22:05:00,73.7,65.7,29.94,ESE,123,2.0,3.0,76,0.00,,,0.00,Wunderground v.1.15,2013-03-31 03:05:00,
2013-03-30 22:14:00,73.2,65.6,29.94,SE,134,1.0,3.0,77,0.00,,,0.00,Wunderground v.1.15,2013-03-31 03:14:00,
2013-03-30 22:25:00,72.6,65.3,29.94,SE,143,1.0,1.0,78,0.00,,,0.00,Wunderground v.1.15,2013-03-31 03:25:00,
2013-03-30 22:34:00,72.1,65.2,29.95,ESE,114,1.0,1.0,79,0.00,,,0.00,Wunderground v.1.15,2013-03-31 03:34:00,
2013-03-30 22:40:00,71.8,65.3,29.95,ESE,121,0.0,1.0,80,0.00,,,0.00,Wunderground v.1.15,2013-03-31 03:40:00,
2013-03-30 22:49:00,71.3,65.2,29.95,SE,129,1.0,1.0,81,0.00,,,0.00,Wunderground v.1.15,2013-03-31 03:49:00,
2013-03-30 22:55:00,71.2,65.1,29.95,SE,139,1.0,1.0,81,0.00,,,0.00,Wunderground v.1.15,2013-03-31 03:55:00,
2013-03-30 23:04:00,70.7,65.3,29.95,ENE,76,1.0,2.0,83,0.00,,,0.00,Wunderground v.1.15,2013-03-31 04:04:00,
2013-03-30 23:09:00,70.5,65.1,29.95,ESE,122,1.0,2.0,83,0.00,,,0.00,Wunderground v.1.15,2013-03-31 04:09:00,
2013-03-30 23:15:00,70.3,65.2,29.95,ESE,110,1.0,2.0,84,0.00,,,0.00,Wunderground v.1.15,2013-03-31 04:15:00,
2013-03-30 23:24:00,69.9,65.2,29.96,ESE,117,0.0,1.0,85,0.00,,,0.00,Wunderground v.1.15,2013-03-31 04:24:00,
2013-03-30 23:35:00,69.5,65.1,29.96,SSE,150,1.0,1.0,86,0.00,,,0.00,Wunderground v.1.15,2013-03-31 04:35:00,
2013-03-30 23:39:00,69.3,64.9,29.96,East,86,0.0,2.0,86,0.00,,,0.00,Wunderground v.1.15,2013-03-31 04:39:00,
2013-03-30 23:45:00,69.1,64.7,29.96,ESE,111,0.0,2.0,86,0.00,,,0.00,Wunderground v.1.15,2013-03-31 04:45:00,
2013-03-30 23:49:00,69.0,65.0,29.96,NNW,333,0.0,0.0,87,0.00,,,0.00,Wunderground v.1.15,2013-03-31 04:49:00,
2013-03-30 23:59:00,68.7,64.7,29.95,SE,134,0.0,0.0,87,0.00,,,0.00,Wunderground v.1.15,2013-03-31 04:59:00,